Showing default

BRO-14, 60551

Orbit data source: Space-Track

BRO-14, 60551 is a payload satellite owned by Unseen Labs (FR) in SSO that was launched on Fri, 16 Aug 2024 UTC via an FALCON 9 launch vehicle from the Air Force Western Test Range (AFWTR). Payload-class satellites include a variety of spacecraft equipped with specific instruments for various scientific and technological missions. These include communications satellites like Starlink; space stations such as the ISS; scientific satellites like the Hubble; Earth observation satellites from companies like Planet Labs, Umbra, and HawkEye 360; GPS; miniature CubeSats for education and research; and military/defense satellites.

Loading next visibility...
Identifier
60551, 2024-149CM
Orbit
SSO
Country
Flag of FRFR
Related business
Manufacturer
GOMSpace
Mission
Operational Commercial Sigint
Bus & Motor
CUBESAT 8U, Unknown motor
Mass
15 kg wet, ~15 kg dry
Launch date (UTC)
2024-08-16 (1 year ago)
Launch vehicle
FALCON 9
Launch site
Air Force Western Test Range (AFWTR)
Object type
Payload
Rocket body
Debris
Shape & HBR
Box, 0.2 m
Radar Cross Section
0.100 m², Medium (>0.1 m² and < 1m²)

Expand to show TLE details & history
Last TLE update: 23 hours ago

TLE from 23 hours ago
0 BRO-14
1 60551U 24149CM  26034.15645800  .00002071  00000-0  19064-3 0  9994
2 60551  97.6996 112.3100 0006956 172.8356 187.2966 14.95811771 79954
Epoch: 2026-02-03T03:45Z
TLE epoch observation values (Epoch: 2026-02-03T03:45:17.971Z)
Latitude
0.00001°
Longitude
-77.35632°
Altitude
587.705 km
Speed
7.564 km/s
True Right ascension
07h 29m 14s
True Declination
0° 00' 00"
Sunlit
Object was in full shadow at epoch
Visualization orbit readout
Latitude
Unknown
Longitude
Unknown
Altitude
Unknown
Speed
Unknown
Apparent Right ascension
Unknown
Apparent Declination
Unknown
Sunlit
N/A
Visualization observer readout
Local Sidereal Time
05:03:37
Azimuth
Unknown
Elevation
Unknown
Doppler factor
Unknown
Orbital elements
Apogee altitude
581.703 km
Perigee altitude
572.027 km
Semi-major axis
6,955.002 km
Eccentricity
0.0007
Inclination
97.6996°
RAAN
112.31°
Arg. of periapsis
172.8356°
True anomaly
187.28649°
Mean anomaly
187.2966°
Eccentric anomaly
187.29154°
Mean motion
3.74194 °/min
Orbital period
96.21 mins
BSTAR
0.00019064
Loading maneuver chart data...
Computing Atmospheric mass density...
Loading historical data...
Loading historical data...
Loading historical data...
Loading historical data...
Loading historical data...
Loading historical data...
Loading historical data...

Documentation

Showing up to 5 results
|